Regional Weather Roundup
Issued by NWS Albany, NY

Home | Current Version | Previous Version | Text Only | Print | Product List | Glossary On
Versions: 1 2 3 4 5 6 7 8 9 10 11 12 13 14 15 16 17 18 19 20 21 22 23 24 25 26 27 28 29 30 31 32 33 34 35 36 37 38 39 40 41 42 43 44 45 46 47 48
000
ASUS41 KALY 281310
RWRALY

NEW YORK STATE HOURLY WEATHER ROUNDUP
NATIONAL WEATHER SERVICE ALBANY NY
800 AM EST WED JAN 28 2015

NOTE: "FAIR" INDICATES FEW OR NO CLOUDS BELOW 12,000 FEET WITH NO
SIGNIFICANT WEATHER AND/OR NO OBSTRUCTIONS TO VISIBILITY.

NYZ032-033-038>043-046>054-057>066-NYZ062>081-281400-
EAST


CITY           SKY/WX    TMP DP  RH WIND       PRES   REMARKS
ALBANY         MOCLDY    11  -2  56 N14       30.08R WCI  -5
GLENS FALLS    CLOUDY     9   3  77 E5        30.08R WCI   1
POUGHKEEPSIE   PTCLDY    17   2  51 W13       30.00R WCI   4
NEWBURGH       PTCLDY    10   1  67 NW6       29.99R WCI   1
MONTGOMERY     CLEAR     17  -3  41 NW10      29.99R WCI   5
WHITE PLAINS   PTCLDY    15   1  53 NW9       29.95R WCI   3
ISLIP          MOCLDY    18   5  57 N16G35    29.95R WCI   3
NEW YORK CITY  PTCLDY    19   2  47 NW18G24   30.01R WCI   4
CENTRAL PARK   CLEAR     18  -2  41 VRB7G21   30.02R WCI   9
$$

NYZ005>009-017-018-044>046-055-056-281400-
CENTRAL


CITY           SKY/WX    TMP DP  RH WIND       PRES   REMARKS
FULTON         PTCLDY    -1  -6  79 CALM      30.19R
SYRACUSE       PTCLDY     0  -2  91 CALM      30.19R
ROME           PTCLDY    -1  -7  75 NW5       30.18R WCI -11
ELMIRA         PTCLDY    -8 -11  86 W3        30.17R
BINGHAMTON     PTCLDY     8   2  76 NW15G23   30.03R WCI  -9
MONTICELLO     MOCLDY     9   0  66 NW15G21   29.98R WCI  -8
$$

NYZ026>034-041>043-281400-
NORTH


CITY           SKY/WX    TMP DP  RH WIND       PRES   REMARKS
WATERTOWN        N/A    N/A N/A N/A MISG      30.21R
FORT DRUM      NOT AVBL
MASSENA        PTCLDY     2  -8  63 W6        30.20R WCI  -9
SARANAC LAKE   MOCLDY     0  -7  72 SW5       29.98R WCI -10
PLATTSBURGH    CLOUDY     9  -4  55 NW6       30.11R WCI  -1
$$

NYZ001>004-010>016-019>021-281400-
WEST


CITY           SKY/WX    TMP DP  RH WIND       PRES   REMARKS
NIAGARA FALLS  PTCLDY     5   0  79 CALM      30.26R
BUFFALO        PTCLDY     5   1  83 SW5       30.25R WCI  -4
DUNKIRK        PTCLDY     2   0  91 SW7       30.27R WCI -11
JAMESTOWN      MOCLDY     1  -2  85 CALM      30.16R
WELLSVILLE     PTCLDY     8   1  73 NW10      30.10R WCI  -6
ROCHESTER      PTCLDY     9   4  80 W8        30.22R WCI  -3
PENN YAN       PTCLDY    12   4  70 VRB5      30.16R WCI   4
$$

             KEY
       WCI = WIND CHILL INDEX
       VSB = VISIBILITY
       HX  = HEAT INDEX
$$


USA.gov is the U.S. government's official web portal to all federal, state and local government web resources and services.